Location: Lichtensteig
(47.3376°N, 9.0841°E)
Time: 06:27:19
(UTC+00:00)

FALCON 9 DEB - Pass Details

Date: 03 March 2021
Orbit: 367 x 387 km, 53.0° (Epoch: 12 April)

Event Time Altitude Azimuth Distance (km) Brightness Sun altitude
Rises 17:54:34 0° 282° (WNW) 2,289 8.7 -8.0°
Reaches altitude 10° 17:56:49 10° 294° (WNW) 1,433 6.9 -8.4°
Maximum altitude 17:59:39 28° 357° (N) 771 4.4 -8.9°
Enters shadow 18:02:27 10° 59° (ENE) 1,416 5.2 -9.4°
